This is the latest recevied weather packets stored in our database for station/object EA1CUE-WX. If no packets are shown the sender has not sent any weather packets the latest 10 day(s).
| Time | Temp. | Humidity | Pressure | Rain* | Wind** | Luminosity | Snow |
|---|---|---|---|---|---|---|---|
| 1787845430 | 12.22° C | 1% | 1011.5 hPa | 0.25 mm | - | - | - |
| 1787845130 | 12.22° C | 1% | 1011.3 hPa | 0.25 mm | - | - | - |
| 1787844830 | 12.22° C | 1% | 1011.3 hPa | 0.25 mm | - | - | - |
| 1787844530 | 11.67° C | 1% | 1011.1 hPa | 0.25 mm | - | - | - |
| 1787844230 | 11.67° C | 1% | 1011.2 hPa | 0.25 mm | - | - | - |
| 1787843930 | 11.67° C | 1% | 1011.1 hPa | 0.25 mm | - | - | - |
| 1787843630 | 12.22° C | 1% | 1011.1 hPa | 0.25 mm | - | - | - |
| 1787843330 | 13.33° C | 1% | 1011.1 hPa | 0.76 mm | - | - | - |
| 1787843030 | 13.89° C | 1% | 1010.9 hPa | 0.51 mm | - | - | - |
| 1787842730 | 14.44° C | 1% | 1010.8 hPa | 0.51 mm | - | - | - |
| 1787842430 | 14.44° C | 6% | 1010.6 hPa | 0.51 mm | - | - | - |
| 1787842130 | 14.44° C | 1% | 1010.5 hPa | 0.51 mm | - | - | - |
| 1787841830 | 14.44° C | 1% | 1010.3 hPa | 0.51 mm | - | - | - |
| 1787841530 | 14.44° C | 1% | 1010.4 hPa | 0.51 mm | - | - | - |
| 1787841230 | 13.89° C | 1% | 1010.4 hPa | 0.51 mm | - | - | - |
| 1787840930 | 13.33° C | 1% | 1010.3 hPa | 0.51 mm | - | - | - |
| 1787840630 | 12.78° C | 1% | 1010.3 hPa | 0.51 mm | - | - | - |
| 1787840330 | 12.78° C | 1% | 1010.3 hPa | 0.51 mm | - | - | - |
| 1787840030 | 12.78° C | 1% | 1010.3 hPa | 0.51 mm | - | - | - |
| 1787839730 | 13.89° C | 1% | 1010.3 hPa | 0 mm | - | - | - |
| 1787839430 | 14.44° C | 1% | 1010.2 hPa | 0 mm | - | - | - |
| 1787839130 | 15° C | 18% | 1010 hPa | 0 mm | - | - | - |
| 1787838830 | 15° C | 22% | 1010 hPa | 0 mm | - | - | - |
| 1787838530 | 15° C | 25% | 1009.9 hPa | 0 mm | - | - | - |
| 1787838230 | 15.56° C | 17% | 1009.9 hPa | 0 mm | - | - | - |
* Rain latest hour (hover to see other rain measurements)
** Current wind speed in m/s (hover to see current wind gust speed)